This is the latest recevied weather packets stored in our database for station/object ON5MM-5. If no packets are shown the sender has not sent any weather packets the latest 10 day(s).
| Time | Temp. | Humidity | Pressure | Rain* | Wind** | Luminosity | Snow |
|---|---|---|---|---|---|---|---|
| 1777614902 | 13.89° C | 29% | 1026 hPa | 0 mm | 0.89 m/s, ° | - | - |
| 1777614603 | 13.33° C | 29% | 1025.9 hPa | 0 mm | 1.79 m/s, ° | - | - |
| 1777614302 | 12.78° C | 29% | 1026 hPa | 0 mm | 2.24 m/s, ° | - | - |
| 1777614003 | 12.78° C | 30% | 1025.9 hPa | 0 mm | 1.79 m/s, ° | - | - |
| 1777613703 | 12.78° C | 29% | 1026 hPa | 0 mm | 2.68 m/s, ° | - | - |
| 1777613403 | 12.22° C | 30% | 1025.9 hPa | 0 mm | 1.79 m/s, ° | - | - |
| 1777613102 | 12.22° C | 31% | 1025.9 hPa | 0 mm | 2.24 m/s, ° | - | - |
| 1777612802 | 12.22° C | 31% | 1025.9 hPa | 0 mm | 1.34 m/s, ° | - | - |
| 1777612502 | 11.67° C | 31% | 1025.9 hPa | 0 mm | 2.24 m/s, ° | - | - |
| 1777612203 | 11.67° C | 31% | 1025.9 hPa | 0 mm | 1.34 m/s, ° | - | - |
| 1777611903 | 11.11° C | 31% | 1025.9 hPa | 0 mm | 2.68 m/s, ° | - | - |
| 1777611603 | 11.11° C | 32% | 1025.8 hPa | 0 mm | 2.24 m/s, ° | - | - |
| 1777611303 | 11.11° C | 32% | 1025.8 hPa | 0 mm | 1.79 m/s, ° | - | - |
| 1777611003 | 10.56° C | 32% | 1025.9 hPa | 0 mm | 2.24 m/s, ° | - | - |
| 1777610702 | 10.56° C | 33% | 1025.8 hPa | 0 mm | 2.24 m/s, ° | - | - |
| 1777610403 | 10.56° C | 33% | 1025.8 hPa | 0 mm | 2.68 m/s, ° | - | - |
| 1777610103 | 10.56° C | 33% | 1025.8 hPa | 0 mm | 2.68 m/s, ° | - | - |
| 1777609803 | 10.56° C | 33% | 1025.7 hPa | 0 mm | 3.58 m/s, ° | - | - |
| 1777609502 | 10.56° C | 33% | 1025.7 hPa | 0 mm | 2.68 m/s, ° | - | - |
| 1777609202 | 10.56° C | 32% | 1025.8 hPa | 0 mm | 3.13 m/s, ° | - | - |
| 1777608903 | 10.56° C | 33% | 1025.9 hPa | 0 mm | 3.58 m/s, ° | - | - |
| 1777608603 | 10.56° C | 33% | 1025.7 hPa | 0 mm | 2.68 m/s, ° | - | - |
| 1777608303 | 10° C | 33% | 1025.7 hPa | 0 mm | 2.24 m/s, ° | - | - |
| 1777608002 | 10.56° C | 33% | 1025.7 hPa | 0 mm | 2.24 m/s, ° | - | - |
| 1777607703 | 10.56° C | 32% | 1025.7 hPa | 0 mm | 1.79 m/s, ° | - | - |
* Rain latest hour (hover to see other rain measurements)
** Current wind speed in m/s (hover to see current wind gust speed)